Retour au catalogue

STARLINK-35734

ActifCommunicationsVLEO
NORAD 66225·PAYLOAD·🇺🇸 United States

Lancé Oct 28, 2025 depuis Vandenberg Space Force Base

Loading…

Prochains Passages (prochaines 24 heures)

TLE

FraisSource: CelesTrak SupGP

Époque: Sep 14, 2026, 21:14 UTC

1 66225C 25244V   26257.88520833  .00028126  00000+0  83118-3 0  2576
2 66225  53.1588  70.1863 0001245  84.2909 121.0652 15.34369487    10

Suivez STARLINK-35734 en temps réel avec AllMySat

Download on the App Store